Location: York
(31.8935°S, 116.7682°E)
Time: 18:30:39
(UTC+08:00)

deb Explorer IX - Pass Details

Date: 01 October 2022
Orbit: 533 x 1057 km, 38.8° (Epoch: 30 November)

Event Time Altitude Azimuth Distance (km) Brightness Sun altitude
Rises 21:52:22 0° 252° (WSW) 3,225 ? -43.1°
Enters shadow 21:55:00 - 245° (WSW) 2,264 ? -43.6°
Reaches altitude 10° 21:55:10 10° 244° (WSW) 2,203 - -43.6°
Maximum altitude 21:59:51 36° 177° (S) 1,021 - -44.3°
Drops below altitude 10° 22:03:59 10° 109° (ESE) 1,934 - -44.9°
Sets 22:06:18 0° 99° (E) 2,779 - -45.2°
